Previsão horária em Abramkovo

Hoje, 9 Maio, Domingo

Tempo Temperatura Precipitação Vento Pressão Humidade
00:00 +2°C° 0 mm 5 m/s 737 mmHg 85%
01:00 +1°C° 0 mm 5 m/s 738 mmHg 85%
02:00 +1°C° 0 mm 5 m/s 739 mmHg 85%
03:00 +1°C° 0 mm 5 m/s 739 mmHg 86%
04:00 +1°C° 0 mm 5 m/s 739 mmHg 87%
05:00 0°C° 0 mm 5 m/s 740 mmHg 89%
06:00 +1°C° 0 mm 5 m/s 741 mmHg 85%
07:00 +1°C° 0 mm 5 m/s 741 mmHg 82%
08:00 +1°C° 0 mm 5 m/s 742 mmHg 79%
09:00 +3°C° 0 mm 5 m/s 742 mmHg 69%
10:00 +5°C° 0 mm 6 m/s 743 mmHg 59%
11:00 +8°C° 0 mm 6 m/s 743 mmHg 49%
12:00 +9°C° 0 mm 6 m/s 743 mmHg 46%
13:00 +10°C° 0 mm 6 m/s 744 mmHg 42%
14:00 +10°C° 0 mm 6 m/s 744 mmHg 39%
15:00 +10°C° 0 mm 5 m/s 745 mmHg 42%
16:00 +10°C° 0 mm 5 m/s 745 mmHg 45%
17:00 +11°C° 0 mm 4 m/s 746 mmHg 48%
18:00 +8°C° 0 mm 4 m/s 746 mmHg 54%
19:00 +7°C° 0 mm 3 m/s 747 mmHg 60%
20:00 +4°C° 0 mm 3 m/s 748 mmHg 66%
21:00 +4°C° 0 mm 2 m/s 748 mmHg 67%
22:00 +3°C° 0 mm 2 m/s 749 mmHg 68%
23:00 +3°C° 0 mm 2 m/s 749 mmHg 68%

Amanhã, 10 Maio, Segunda-feira

Tempo Temperatura Precipitação Vento Pressão Humidade
00:00 +2°C° 0 mm 2 m/s 750 mmHg 69%
01:00 +2°C° 0 mm 2 m/s 750 mmHg 69%
02:00 +2°C° 0 mm 2 m/s 751 mmHg 69%
03:00 +3°C° 0 mm 1 m/s 751 mmHg 69%
04:00 +3°C° 0 mm 1 m/s 752 mmHg 68%
05:00 +3°C° 0 mm 0 m/s 752 mmHg 68%
06:00 +5°C° 0 mm 0 m/s 752 mmHg 62%
07:00 +7°C° 0 mm 0 m/s 753 mmHg 56%
08:00 +9°C° 0 mm 0 m/s 753 mmHg 50%
09:00 +12°C° 0 mm 1 m/s 753 mmHg 47%
10:00 +13°C° 0 mm 1 m/s 753 mmHg 43%
11:00 +14°C° 0 mm 1 m/s 753 mmHg 40%
12:00 +15°C° 0 mm 1 m/s 753 mmHg 40%
13:00 +15°C° 0 mm 1 m/s 753 mmHg 39%
14:00 +16°C° 0 mm 1 m/s 753 mmHg 38%
15:00 +15°C° 0 mm 1 m/s 753 mmHg 41%
16:00 +15°C° 0 mm 1 m/s 753 mmHg 44%
17:00 +15°C° 0 mm 1 m/s 753 mmHg 46%
18:00 +13°C° 0 mm 1 m/s 753 mmHg 53%
19:00 +11°C° 0 mm 1 m/s 753 mmHg 60%
20:00 +8°C° 0 mm 2 m/s 753 mmHg 67%
21:00 +8°C° 0 mm 2 m/s 753 mmHg 67%
22:00 +8°C° 0 mm 1 m/s 753 mmHg 67%
23:00 +8°C° 0 mm 1 m/s 754 mmHg 68%

Depois de amanhã, 11 Maio, Terça-feira

Tempo Temperatura Precipitação Vento Pressão Humidade
00:00 +7°C° 0 mm 1 m/s 754 mmHg 68%
01:00 +7°C° 0 mm 1 m/s 754 mmHg 69%
02:00 +6°C° 0 mm 1 m/s 754 mmHg 69%
03:00 +7°C° 0 mm 1 m/s 754 mmHg 70%
04:00 +7°C° 0 mm 1 m/s 754 mmHg 71%
05:00 +7°C° 0 mm 1 m/s 754 mmHg 71%
06:00 +8°C° 0 mm 2 m/s 754 mmHg 65%
07:00 +10°C° 0 mm 2 m/s 754 mmHg 59%
08:00 +12°C° 0 mm 3 m/s 754 mmHg 53%
09:00 +13°C° 0 mm 3 m/s 754 mmHg 50%
10:00 +14°C° 0 mm 4 m/s 754 mmHg 47%
11:00 +15°C° 0 mm 4 m/s 754 mmHg 43%
12:00 +17°C° 0 mm 4 m/s 754 mmHg 43%
13:00 +17°C° 0 mm 4 m/s 753 mmHg 42%
14:00 +18°C° 0 mm 3 m/s 753 mmHg 41%
15:00 +17°C° 0 mm 3 m/s 753 mmHg 46%
16:00 +17°C° 0 mm 3 m/s 753 mmHg 50%
17:00 +17°C° 0 mm 3 m/s 753 mmHg 55%
18:00 +14°C° 0 mm 3 m/s 752 mmHg 62%
19:00 +13°C° 0 mm 2 m/s 752 mmHg 69%
20:00 +12°C° 0 mm 2 m/s 752 mmHg 77%
21:00 +10°C° 0 mm 2 m/s 752 mmHg 79%
22:00 +10°C° 0 mm 2 m/s 752 mmHg 82%
23:00 +9°C° 0 mm 2 m/s 752 mmHg 85%

12 Maio, Quarta-feira

Tempo Temperatura Precipitação Vento Pressão Humidade
00:00 +9°C° 0 mm 2 m/s 752 mmHg 86%
01:00 +8°C° 0 mm 2 m/s 752 mmHg 88%
02:00 +8°C° 0 mm 2 m/s 751 mmHg 89%
03:00 +8°C° 0 mm 3 m/s 751 mmHg 89%
04:00 +9°C° 0 mm 3 m/s 751 mmHg 88%
05:00 +9°C° 0 mm 3 m/s 751 mmHg 88%
06:00 +11°C° 0 mm 4 m/s 751 mmHg 83%
07:00 +13°C° 0 mm 4 m/s 750 mmHg 79%
08:00 +15°C° 0 mm 5 m/s 750 mmHg 74%
09:00 +16°C° 0.1 mm 5 m/s 750 mmHg 73%
10:00 +17°C° 0.1 mm 5 m/s 750 mmHg 72%
11:00 +19°C° 0.1 mm 5 m/s 749 mmHg 72%
12:00 +17°C° 0.3 mm 5 m/s 749 mmHg 75%
13:00 +17°C° 0.3 mm 4 m/s 749 mmHg 79%
14:00 +17°C° 0.3 mm 4 m/s 749 mmHg 82%
15:00 +17°C° 0.3 mm 4 m/s 749 mmHg 82%
16:00 +17°C° 0.3 mm 4 m/s 749 mmHg 82%
17:00 +17°C° 0.3 mm 4 m/s 749 mmHg 82%
18:00 +16°C° 0.2 mm 3 m/s 749 mmHg 86%
19:00 +14°C° 0.2 mm 3 m/s 748 mmHg 89%
20:00 +14°C° 0.2 mm 2 m/s 748 mmHg 92%
21:00 +14°C° 0 mm 2 m/s 748 mmHg 93%
22:00 +14°C° 0 mm 2 m/s 748 mmHg 95%
23:00 +13°C° 0 mm 2 m/s 748 mmHg 96%

13 Maio, Quinta-feira

Tempo Temperatura Precipitação Vento Pressão Humidade
00:00 +13°C° 0 mm 2 m/s 747 mmHg 96%
01:00 +13°C° 0 mm 2 m/s 747 mmHg 96%
02:00 +13°C° 0 mm 2 m/s 747 mmHg 96%
03:00 +12°C° 0.1 mm 3 m/s 746 mmHg 96%
04:00 +12°C° 0.1 mm 3 m/s 746 mmHg 96%
05:00 +12°C° 0.1 mm 3 m/s 746 mmHg 96%
06:00 +13°C° 0.2 mm 3 m/s 746 mmHg 95%
07:00 +13°C° 0.2 mm 4 m/s 745 mmHg 94%
08:00 +13°C° 0.2 mm 4 m/s 745 mmHg 94%
09:00 +14°C° 0.2 mm 4 m/s 745 mmHg 88%
10:00 +15°C° 0.2 mm 4 m/s 745 mmHg 83%
11:00 +17°C° 0.2 mm 4 m/s 745 mmHg 77%
12:00 +17°C° 0.1 mm 5 m/s 745 mmHg 70%
13:00 +19°C° 0.1 mm 5 m/s 745 mmHg 62%
14:00 +20°C° 0.1 mm 5 m/s 744 mmHg 55%
15:00 +20°C° 0.1 mm 4 m/s 744 mmHg 59%
16:00 +19°C° 0.1 mm 4 m/s 744 mmHg 63%
17:00 +19°C° 0.1 mm 3 m/s 744 mmHg 67%
18:00 +17°C° 0.1 mm 3 m/s 744 mmHg 75%
19:00 +16°C° 0.1 mm 3 m/s 744 mmHg 83%
20:00 +14°C° 0.1 mm 2 m/s 744 mmHg 91%
21:00 +13°C° 0 mm 2 m/s 744 mmHg 93%
22:00 +13°C° 0 mm 2 m/s 744 mmHg 95%
23:00 +13°C° 0 mm 2 m/s 744 mmHg 96%

14 Maio, Sexta-feira

Tempo Temperatura Precipitação Vento Pressão Humidade
00:00 +12°C° 0 mm 2 m/s 744 mmHg 96%
01:00 +12°C° 0 mm 2 m/s 744 mmHg 96%
02:00 +12°C° 0 mm 2 m/s 744 mmHg 96%
03:00 +11°C° 0 mm 3 m/s 743 mmHg 94%
04:00 +11°C° 0 mm 3 m/s 743 mmHg 93%
05:00 +12°C° 0 mm 3 m/s 743 mmHg 91%
06:00 +13°C° 0 mm 4 m/s 743 mmHg 85%
07:00 +15°C° 0 mm 4 m/s 742 mmHg 79%
08:00 +17°C° 0 mm 5 m/s 742 mmHg 73%
09:00 +19°C° 0 mm 5 m/s 742 mmHg 67%
10:00 +20°C° 0 mm 6 m/s 741 mmHg 62%
11:00 +21°C° 0 mm 6 m/s 741 mmHg 57%
12:00 +21°C° 0.6 mm 6 m/s 741 mmHg 62%
13:00 +21°C° 0.6 mm 6 m/s 741 mmHg 66%
14:00 +21°C° 0.6 mm 6 m/s 740 mmHg 70%
15:00 +20°C° 0.7 mm 5 m/s 740 mmHg 74%
16:00 +20°C° 0.7 mm 4 m/s 740 mmHg 77%
17:00 +19°C° 0.7 mm 4 m/s 740 mmHg 80%
18:00 +18°C° 0.1 mm 3 m/s 740 mmHg 84%
19:00 +17°C° 0.1 mm 2 m/s 740 mmHg 88%
20:00 +15°C° 0.1 mm 2 m/s 740 mmHg 92%
21:00 +15°C° 0 mm 1 m/s 740 mmHg 92%
22:00 +14°C° 0 mm 1 m/s 740 mmHg 93%
23:00 +13°C° 0 mm 1 m/s 739 mmHg 93%
Mostrar mais

Necessitamos do seu Consentimento

A Meteoprog e os seus Fornecedores de Serviços podem armazenar e aceder a dados pessoais como cookies, identificadores do dispositivo ou outras tecnologias semelhantes existentes no seu dispositivo e processar estes dados para personalizar conteúdos e anúncios, assim como funcionalidades nas redes sociais e análise de tráfego.

  • Armazenar e/ou aceder a informações no seu dispositivo

    Os cookies, identificadores do dispositivo ou outras informações podem ser armazenados ou acedidos no seu dispositivo, para os fins acima indicados.

  • Anúncios e conteúdos personalizados, medição de anúncios e conteúdos, dados sobre o público-alvo e desenvolvimento de produtos

    Os anúncios e os conteúdos podem ser personalizados com base num perfil. Podem ser adicionados dados adicionais para uma maior personalização dos anúncios e dos conteúdos. A eficácia dos anúncios e dos conteúdos pode ser medida. Podem ser obtidas informações sobre o público que visualizou os anúncios e os conteúdos. Estes dados podem ser usados para desenvolver ou melhorar sistemas, softwares ou a experiência do utilizador.

Ao clicar em "Eu concordo”, permitirá o uso de cookies, identificadores do dispositivo e web beacons mencionados ou outras tecnologias semelhantes. As configurações do navegador do seu dispositivo podem ser alteradas.

Para certos fins, podem ser invocados interesses legítimos ao invés de consentimento. Pode ler mais informação sobre este assunto na nossa Política de Privacidade e Cookies.